IWY766 TBPB-TLPC

Flight info

Callsign IWY766
Flight time 0h 36m
Altitude 12000
Route TEDDY
Aircraft AT76/M-SDFGHIRWY/LB1

Departure

Time 2026-04-24 23:16
Airport Grantley Adams International Airport (TBPB)

Arrival

Time 2026-04-24 23:52
Airport George F. L. Charles Airport (TLPC)
Time Latitude Longitude Altitude Speed Heading
2026-04-24 22:45 13.07834 -59.48901 174 ft 0 kts 347°
2026-04-24 23:08 13.07839 -59.48907 174 ft 1 kts 286°
2026-04-24 23:08 13.07825 -59.48909 174 ft 3 kts 153°
2026-04-24 23:09 13.07822 -59.48908 174 ft 0 kts 151°
2026-04-24 23:10 13.07805 -59.48898 174 ft 7 kts 151°
2026-04-24 23:10 13.07755 -59.48887 174 ft 8 kts 172°
2026-04-24 23:10 13.07707 -59.48897 174 ft 8 kts 237°
2026-04-24 23:10 13.07687 -59.48975 174 ft 13 kts 255°
2026-04-24 23:11 13.07662 -59.49073 174 ft 14 kts 256°
2026-04-24 23:11 13.07637 -59.49175 174 ft 15 kts 256°
2026-04-24 23:11 13.07611 -59.49282 174 ft 16 kts 256°
2026-04-24 23:11 13.07584 -59.49394 174 ft 16 kts 256°
2026-04-24 23:12 13.07557 -59.49507 174 ft 17 kts 256°
2026-04-24 23:12 13.07527 -59.49625 174 ft 17 kts 255°
2026-04-24 23:12 13.07502 -59.49729 174 ft 14 kts 257°
2026-04-24 23:12 13.07479 -59.49831 174 ft 16 kts 255°
2026-04-24 23:13 13.07452 -59.49941 174 ft 17 kts 256°
2026-04-24 23:13 13.07424 -59.50060 174 ft 18 kts 256°
2026-04-24 23:13 13.07398 -59.50169 174 ft 7 kts 256°
2026-04-24 23:13 13.07365 -59.50202 174 ft 7 kts 173°
2026-04-24 23:14 13.07347 -59.50198 174 ft 0 kts 166°
2026-04-24 23:14 13.07345 -59.50197 174 ft 1 kts 166°
2026-04-24 23:14 13.07331 -59.50194 174 ft 3 kts 166°
2026-04-24 23:15 13.07303 -59.50186 175 ft 6 kts 166°
2026-04-24 23:15 13.07245 -59.50164 175 ft 11 kts 133°
2026-04-24 23:15 13.07265 -59.50018 176 ft 47 kts 76°
2026-04-24 23:15 13.07391 -59.49489 173 ft 103 kts 76°
2026-04-24 23:16 13.07596 -59.48682 484 ft 118 kts 76°
2026-04-24 23:16 13.07862 -59.47892 978 ft 124 kts 73°
2026-04-24 23:16 13.08179 -59.47053 1474 ft 129 kts 71°
2026-04-24 23:16 13.08544 -59.46200 2028 ft 132 kts 61°
2026-04-24 23:17 13.09322 -59.45715 2593 ft 141 kts 14°
2026-04-24 23:17 13.10309 -59.45916 3137 ft 149 kts 337°
2026-04-24 23:17 13.11112 -59.46637 3572 ft 159 kts 307°
2026-04-24 23:17 13.11476 -59.47734 3962 ft 170 kts 274°
2026-04-24 23:18 13.11448 -59.48941 4416 ft 170 kts 266°
2026-04-24 23:18 13.11436 -59.50187 4778 ft 175 kts 269°
2026-04-24 23:18 13.11368 -59.51418 5185 ft 177 kts 270°
2026-04-24 23:18 13.11450 -59.52283 5287 ft 192 kts 278°
2026-04-24 23:19 13.11709 -59.53686 5506 ft 205 kts 282°
2026-04-24 23:19 13.12082 -59.55097 5854 ft 204 kts 288°
2026-04-24 23:19 13.12598 -59.56444 6173 ft 203 kts 295°
2026-04-24 23:19 13.13260 -59.57745 6429 ft 207 kts 301°
2026-04-24 23:20 13.14014 -59.58989 6757 ft 203 kts 303°
2026-04-24 23:20 13.14797 -59.60198 7034 ft 203 kts 304°
2026-04-24 23:20 13.15582 -59.61419 7266 ft 205 kts 304°
2026-04-24 23:20 13.16365 -59.62645 7579 ft 203 kts 303°
2026-04-24 23:21 13.17134 -59.63855 7847 ft 203 kts 303°
2026-04-24 23:21 13.17907 -59.65074 8113 ft 203 kts 303°
2026-04-24 23:21 13.18670 -59.66290 8391 ft 202 kts 303°
2026-04-24 23:21 13.19428 -59.67504 8669 ft 202 kts 302°
2026-04-24 23:22 13.20187 -59.68728 8901 ft 204 kts 302°
2026-04-24 23:22 13.20949 -59.69955 9167 ft 204 kts 302°
2026-04-24 23:22 13.21709 -59.71179 9447 ft 203 kts 302°
2026-04-24 23:22 13.22467 -59.72399 9713 ft 203 kts 302°
2026-04-24 23:23 13.23225 -59.73624 9948 ft 203 kts 302°
2026-04-24 23:23 13.23986 -59.74849 10162 ft 204 kts 302°
2026-04-24 23:23 13.24750 -59.76079 10383 ft 204 kts 302°
2026-04-24 23:23 13.25515 -59.77310 10602 ft 205 kts 302°
2026-04-24 23:24 13.26279 -59.78546 10822 ft 205 kts 302°
2026-04-24 23:24 13.27047 -59.79786 11035 ft 206 kts 302°
2026-04-24 23:24 13.27819 -59.81029 11246 ft 207 kts 302°
2026-04-24 23:24 13.28591 -59.82273 11462 ft 207 kts 302°
2026-04-24 23:25 13.29364 -59.83521 11668 ft 208 kts 302°
2026-04-24 23:25 13.30132 -59.84761 11823 ft 211 kts 302°
2026-04-24 23:25 13.30932 -59.86048 11895 ft 217 kts 302°
2026-04-24 23:25 13.31757 -59.87380 11922 ft 225 kts 302°
2026-04-24 23:26 13.32606 -59.88752 11944 ft 231 kts 302°
2026-04-24 23:26 13.33479 -59.90162 11954 ft 237 kts 302°
2026-04-24 23:26 13.34372 -59.91603 11956 ft 241 kts 302°
2026-04-24 23:26 13.35276 -59.93066 11956 ft 244 kts 302°
2026-04-24 23:27 13.36187 -59.94539 11963 ft 245 kts 302°
2026-04-24 23:27 13.37107 -59.96022 11964 ft 247 kts 302°
2026-04-24 23:27 13.38028 -59.97511 11967 ft 248 kts 302°
2026-04-24 23:27 13.38954 -59.99008 11967 ft 249 kts 302°
2026-04-24 23:28 13.39882 -60.00508 11968 ft 249 kts 302°
2026-04-24 23:28 13.40813 -60.02012 11968 ft 250 kts 302°
2026-04-24 23:28 13.41744 -60.03518 11968 ft 250 kts 302°
2026-04-24 23:28 13.42678 -60.05031 11968 ft 250 kts 302°
2026-04-24 23:29 13.43613 -60.06540 11964 ft 251 kts 302°
2026-04-24 23:29 13.44550 -60.08053 11964 ft 251 kts 302°
2026-04-24 23:29 13.45485 -60.09568 11965 ft 251 kts 302°
2026-04-24 23:29 13.46407 -60.11062 11966 ft 251 kts 302°
2026-04-24 23:30 13.47346 -60.12579 11966 ft 251 kts 302°
2026-04-24 23:30 13.48282 -60.14097 11967 ft 251 kts 302°
2026-04-24 23:30 13.49219 -60.15611 11968 ft 251 kts 302°
2026-04-24 23:30 13.50157 -60.17129 11968 ft 251 kts 302°
2026-04-24 23:31 13.51095 -60.18644 11965 ft 252 kts 301°
2026-04-24 23:31 13.52026 -60.20166 11964 ft 251 kts 301°
2026-04-24 23:31 13.52963 -60.21681 11964 ft 251 kts 301°
2026-04-24 23:31 13.53900 -60.23198 11966 ft 251 kts 301°
2026-04-24 23:32 13.54837 -60.24715 11969 ft 251 kts 302°
2026-04-24 23:32 13.55772 -60.26229 11968 ft 251 kts 301°
2026-04-24 23:32 13.56706 -60.27747 11967 ft 251 kts 301°
2026-04-24 23:32 13.57644 -60.29264 11964 ft 252 kts 301°
2026-04-24 23:33 13.58581 -60.30790 11964 ft 254 kts 301°
2026-04-24 23:33 13.59513 -60.32297 11965 ft 253 kts 301°
2026-04-24 23:33 13.60455 -60.33824 11965 ft 253 kts 302°
2026-04-24 23:33 13.61390 -60.35349 11965 ft 252 kts 301°
2026-04-24 23:34 13.62329 -60.36871 11961 ft 252 kts 301°
2026-04-24 23:34 13.63278 -60.38410 11963 ft 251 kts 301°
2026-04-24 23:34 13.64199 -60.39907 11962 ft 251 kts 301°
2026-04-24 23:34 13.65135 -60.41427 11962 ft 251 kts 302°
2026-04-24 23:35 13.66071 -60.42940 11964 ft 251 kts 301°
2026-04-24 23:35 13.67001 -60.44457 11964 ft 251 kts 301°
2026-04-24 23:35 13.67935 -60.45974 11964 ft 251 kts 302°
2026-04-24 23:35 13.68869 -60.47489 11964 ft 251 kts 301°
2026-04-24 23:36 13.69805 -60.49005 11969 ft 251 kts 301°
2026-04-24 23:36 13.70734 -60.50522 11969 ft 251 kts 301°
2026-04-24 23:36 13.71664 -60.52043 11960 ft 251 kts 301°
2026-04-24 23:36 13.72590 -60.53566 11965 ft 251 kts 300°
2026-04-24 23:37 13.73517 -60.55087 11966 ft 251 kts 301°
2026-04-24 23:37 13.74441 -60.56606 11966 ft 251 kts 300°
2026-04-24 23:37 13.76305 -60.59638 11966 ft 251 kts 300°
2026-04-24 23:38 13.77238 -60.61155 11963 ft 251 kts 300°
2026-04-24 23:38 13.78166 -60.62673 11964 ft 251 kts 301°
2026-04-24 23:38 13.79098 -60.64190 11961 ft 250 kts 301°
2026-04-24 23:38 13.80028 -60.65700 11962 ft 249 kts 301°
2026-04-24 23:39 13.80958 -60.67202 11970 ft 248 kts 301°
2026-04-24 23:39 13.81890 -60.68695 11975 ft 248 kts 301°
2026-04-24 23:39 13.82811 -60.70195 11974 ft 248 kts 301°
2026-04-24 23:39 13.83720 -60.71697 11973 ft 247 kts 301°
2026-04-24 23:40 13.84630 -60.73195 11974 ft 247 kts 301°
2026-04-24 23:40 13.85543 -60.74693 11972 ft 247 kts 301°
2026-04-24 23:40 13.86462 -60.76183 11973 ft 247 kts 301°
2026-04-24 23:40 13.87376 -60.77673 11969 ft 244 kts 300°
2026-04-24 23:41 13.88281 -60.79122 11878 ft 240 kts 300°
2026-04-24 23:41 13.89173 -60.80565 11563 ft 245 kts 301°
2026-04-24 23:41 13.90085 -60.82050 11177 ft 246 kts 301°
2026-04-24 23:41 13.91006 -60.83543 10776 ft 247 kts 300°
2026-04-24 23:42 13.91905 -60.85048 10382 ft 245 kts 296°
2026-04-24 23:42 13.92224 -60.86725 9986 ft 240 kts 262°
2026-04-24 23:42 13.91894 -60.88391 9568 ft 238 kts 255°
2026-04-24 23:42 13.91482 -60.90040 9149 ft 238 kts 254°
2026-04-24 23:43 13.91042 -60.91692 8730 ft 240 kts 253°
2026-04-24 23:43 13.90580 -60.93347 8313 ft 241 kts 252°
2026-04-24 23:43 13.90120 -60.95005 7977 ft 239 kts 252°
2026-04-24 23:43 13.89670 -60.96629 7728 ft 233 kts 252°
2026-04-24 23:44 13.89238 -60.98221 7484 ft 229 kts 252°
2026-04-24 23:44 13.88816 -60.99792 7239 ft 226 kts 252°
2026-04-24 23:44 13.88389 -61.01341 7020 ft 224 kts 252°
2026-04-24 23:44 13.87973 -61.02881 6745 ft 225 kts 253°
2026-04-24 23:45 13.87536 -61.04448 6354 ft 231 kts 252°
2026-04-24 23:45 13.87089 -61.06057 5942 ft 236 kts 252°
2026-04-24 23:45 13.86618 -61.07689 5525 ft 240 kts 251°
2026-04-24 23:45 13.86121 -61.09336 5122 ft 242 kts 251°
2026-04-24 23:46 13.85599 -61.10996 4709 ft 245 kts 250°
2026-04-24 23:46 13.85117 -61.12667 4279 ft 243 kts 261°
2026-04-24 23:46 13.85376 -61.14340 3866 ft 243 kts 297°
2026-04-24 23:46 13.86503 -61.15592 3463 ft 239 kts 332°
2026-04-24 23:47 13.88064 -61.16086 3058 ft 234 kts 354°
2026-04-24 23:47 13.89675 -61.16162 2647 ft 230 kts
2026-04-24 23:47 13.91253 -61.15934 2289 ft 228 kts 12°
2026-04-24 23:47 13.92784 -61.15656 2126 ft 218 kts 13°
2026-04-24 23:48 13.94182 -61.15247 2046 ft 202 kts 26°
2026-04-24 23:48 13.95435 -61.14681 2000 ft 191 kts 28°
2026-04-24 23:48 13.96607 -61.14122 1992 ft 180 kts 28°
2026-04-24 23:48 13.97616 -61.13495 1980 ft 161 kts 41°
2026-04-24 23:49 13.98404 -61.12740 1904 ft 153 kts 57°
2026-04-24 23:49 13.98818 -61.11731 1826 ft 153 kts 77°
2026-04-24 23:49 13.99025 -61.10678 1928 ft 149 kts 79°
2026-04-24 23:49 13.99275 -61.09604 1920 ft 158 kts 75°
2026-04-24 23:50 13.99558 -61.08518 1956 ft 157 kts 75°
2026-04-24 23:50 13.99840 -61.07444 1868 ft 157 kts 74°
2026-04-24 23:50 14.00163 -61.06420 1812 ft 146 kts 74°
2026-04-24 23:50 14.00422 -61.05389 1378 ft 153 kts 76°
2026-04-24 23:51 14.00660 -61.04384 1331 ft 125 kts 79°
2026-04-24 23:51 14.00870 -61.03508 983 ft 128 kts 74°
2026-04-24 23:51 14.01133 -61.02626 694 ft 129 kts 76°
2026-04-24 23:51 14.01370 -61.01733 434 ft 126 kts 77°
2026-04-24 23:52 14.01597 -61.00859 175 ft 123 kts 75°
2026-04-24 23:52 14.01806 -61.00039 51 ft 115 kts 77°
2026-04-24 23:52 14.01997 -60.99316 22 ft 72 kts 73°
2026-04-24 23:52 14.02052 -60.99117 26 ft 12 kts 64°
2026-04-24 23:53 14.02063 -60.99068 25 ft 1 kts 171°
2026-04-24 23:53 14.02044 -60.99108 26 ft 12 kts 258°
2026-04-24 23:53 14.02023 -60.99209 21 ft 16 kts 258°
2026-04-24 23:53 14.01997 -60.99321 21 ft 16 kts 255°
2026-04-24 23:54 14.01973 -60.99414 24 ft 5 kts 255°
2026-04-24 23:54 14.01982 -60.99471 26 ft 10 kts 289°
2026-04-24 23:54 14.02001 -60.99533 24 ft 8 kts 282°
2026-04-24 23:54 14.02002 -60.99572 24 ft 1 kts 303°
2026-04-24 23:55 14.02018 -60.99576 26 ft 2 kts 346°
2026-04-24 23:55 14.02034 -60.99573 27 ft 3 kts 33°
2026-04-24 23:55 14.02029 -60.99560 24 ft 3 kts 135°
2026-04-24 23:55 14.02024 -60.99558 24 ft 0 kts 155°